Tracking 22454 objects as of 5-Mar-2021
HD Live streaming from Space Station
objects crossing your sky now

CZ-3C DEB

Track CZ-3C DEB now!


NORAD ID: 40861
Int'l Code: 2012-008AB
Perigee: 699.5 km
Apogee: 35,206.1 km
Inclination: 21.0 °
Period: 629.2 minutes
Semi major axis: 24323 km
RCS: Unknown
Launch date: February 24, 2012
Source: People's Republic of China (PRC)
Launch site: Xichang Space Center, China (XSC)

Note: This is SATELLITE DEBRIS
aabbcc
Your satellite tracking list
Your tracking list is empty




NASA's NSSDC Master Catalog

Two Line Element Set (TLE):
1 40861U 12008AB  21063.05295062  .00000026  00000-0  15452-2 0  9998
2 40861  20.9866 302.7946 7093175 123.5965 324.0829  2.28852561 52213
Source of the keplerian elements: AFSPC